East Wenatchee, WA

1:56 PM PST on February 23, 2017 (GMT -0800)
Pangborn Memorial

Weather History for KEAT - December, 2013

Change the Weather History Date:

Monday, December 16, 2013

  Actual Average Record
Temperature  
Mean Temperature 37 °F 27 °F  
Max Temperature 48 °F 32 °F 58 °F (1999)
Min Temperature 26 °F 23 °F -11 °F (1964)
Degree Days  
Heating Degree Days 28 38  
Month to date heating degree days 663 575  
Since 1 July heating degree days 2028 1947  
Cooling Degree Days 0 0  
Month to date cooling degree days 0 0  
Year to date cooling degree days 1028 790  
Moisture  
Dew Point 28 °F    
Average Humidity 73    
Maximum Humidity 92    
Minimum Humidity 53    
Precipitation  
Precipitation 0.00 in 0.04 in 0.54 in (1961)
Month to date precipitation 0.07 0.73  
Year to date precipitation 7.21 7.34  
Sea Level Pressure  
Sea Level Pressure 30.37 in    
Wind  
Wind Speed 5 mph (WNW)    
Max Wind Speed 15 mph    
Max Gust Speed 17 mph    
Visibility 9 miles    
Events      
T = Trace of Precipitation, MM = Missing Value Source: NWS Daily Summary

Daily Weather History Graph

Daily Weather History Graph

Search for Another Location

Airport or City:

Trip Planner

Search our weather history database for the weather conditions in past years. The results will help you decide how hot, cold, wet, or windy it might be!

Date:

Astronomy

Dec. 16, 2013 Rise Set
Actual Time 7:42 AM PST 4:10 PM PST
Civil Twilight 7:06 AM PST 4:46 PM PST
Nautical Twilight 6:27 AM PST 5:25 PM PST
Astronomical Twilight 5:50 AM PST 6:03 PM PST
Moon 4:09 PM PST (12/16) 6:51 AM PST (12/16)
Length of Visible Light 9h 40m
Length of Day
8h 28m
Full, 100% of the Moon is Illuminated
Dec 16
Full
Dec 17
Full
Dec 25
Last Quarter
Jan 1
New
Jan 7
First Quarter

Hourly Weather History & Observations

Time (PST) Temp. Windchill Dew Point Humidity Pressure Visibility Wind Dir Wind Speed Gust Speed Precip Events Conditions
12:55 AM 26.1 °F 21.9 °F 24.1 °F 92% 30.34 in 6.0 mi ENE 3.5 mph - N/A   Clear
1:55 AM 27.0 °F - 24.1 °F 89% 30.35 in 8.0 mi Calm Calm - N/A   Clear
2:55 AM 27.0 °F 23.0 °F 24.1 °F 89% 30.38 in 10.0 mi West 3.5 mph - N/A   Clear
3:55 AM 33.1 °F 26.9 °F 27.0 °F 78% 30.36 in 10.0 mi North 6.9 mph - N/A   Clear
4:55 AM 35.1 °F 27.4 °F 28.0 °F 76% 30.37 in 10.0 mi WNW 10.4 mph - N/A   Clear
5:55 AM 37.9 °F 32.7 °F 28.0 °F 68% 30.37 in 10.0 mi WNW 6.9 mph - N/A   Clear
6:55 AM 41.0 °F 34.7 °F 28.9 °F 62% 30.38 in 10.0 mi NW 10.4 mph - N/A   Clear
7:55 AM 39.9 °F 32.5 °F 28.9 °F 65% 30.38 in 10.0 mi NW 12.7 mph - N/A   Clear
8:55 AM 42.1 °F 34.9 °F 28.9 °F 60% 30.40 in 10.0 mi NW 13.8 mph - N/A   Clear
9:55 AM 37.9 °F 33.5 °F 30.0 °F 73% 30.42 in 10.0 mi West 5.8 mph - N/A   Clear
10:55 AM 39.9 °F 35.8 °F 30.9 °F 70% 30.41 in 10.0 mi SSW 5.8 mph - N/A   Clear
11:55 AM 41.0 °F 37.1 °F 32.0 °F 70% 30.39 in 10.0 mi SSW 5.8 mph - N/A   Clear
12:55 PM 46.0 °F 42.5 °F 30.9 °F 56% 30.36 in 10.0 mi Variable 6.9 mph - N/A   Clear
1:55 PM 44.1 °F 41.5 °F 30.9 °F 60% 30.35 in 10.0 mi SSW 4.6 mph - N/A   Clear
2:55 PM 44.1 °F 40.8 °F 30.9 °F 60% 30.35 in 10.0 mi SSW 5.8 mph - N/A   Clear
3:55 PM 41.0 °F 38.0 °F 30.9 °F 67% 30.37 in 10.0 mi East 4.6 mph - N/A   Clear
4:55 PM 37.0 °F - 30.0 °F 76% 30.37 in 10.0 mi Calm Calm - N/A   Clear
5:55 PM 35.1 °F 31.0 °F 30.0 °F 82% 30.37 in 10.0 mi East 4.6 mph - N/A   Clear
6:55 PM 34.0 °F 28.0 °F 30.0 °F 85% 30.36 in 10.0 mi East 6.9 mph - N/A   Clear
7:55 PM 32.0 °F - 28.9 °F 88% 30.38 in 10.0 mi Calm Calm - N/A   Clear
8:55 PM 32.0 °F - 28.9 °F 88% 30.36 in 9.0 mi Calm Calm - N/A   Clear
9:55 PM 28.0 °F - 26.1 °F 92% 30.36 in 6.0 mi Calm Calm - N/A   Clear
10:55 PM 30.0 °F - 27.0 °F 88% 30.35 in 7.0 mi Calm Calm - N/A   Clear
11:36 PM 26.6 °F - 24.8 °F 93% 30.31 in 2.5 mi Calm Calm - N/A   Partly Cloudy
11:51 PM 28.4 °F - 26.6 °F 93% 30.31 in 4.0 mi Calm Calm - N/A   Scattered Clouds
11:55 PM 28.0 °F - 26.1 °F 92% 30.34 in 4.0 mi Calm Calm - N/A   Mostly Cloudy